Find Amazonas Nexus

NORAD ID: 55508 Int'l Des: 2023-017 Owner: HISPM/HISP Country: BR operational
HEOCIRCULARGSOGEO

实时位置

正在加载3D地球...

关于 Amazonas Nexus

正在加载描述...

即将过境

Passes for default location (London). Set your location on the main map for personalized predictions.

高度历史

Loading altitude history...

两行轨道根数

1 55508U 23017A 26126.46413898 -.00000275 00000-0 00000+0 0 9990
2 55508 0.0449 43.8123 0005586 0.0661 286.5492 1.00270470 6621
Epoch: May 6, 2026 • Age: 7 hours

当前状态

高度 35766.3 km
速度 3.08 km/s
星下点 0.03°N, 60.96°W
发射日期 Feb 7, 2023
运行时间 3.2 years
类型 other

技术详情

分类 Payload
质量 4500.00 kg
干质量 4200.00 kg
总质量 4500.00 kg
长度 8.80 m
直径 3.50 m
跨度 45.00 m
形状 Box + 2 Pan
制造商 THALES
平台类型 Spacebus NEO200
阶段状态 In Orbit
所有者/国家 HISPM/HISP/BR

Most Searched